TimeEST,TemperatureF,Dew PointF,Humidity,Sea Level PressureIn,VisibilityMPH,Wind Direction,Wind SpeedMPH,Gust SpeedMPH,PrecipitationIn,Events,Conditions,WindDirDegrees,DateUTC
12:54 AM,30.0,28.0,92,30.11,6.0,WSW,6.9,-,N/A,,Partly Cloudy,250,2011-11-24 05:54:00
1:54 AM,30.9,28.9,92,30.13,10.0,West,5.8,-,N/A,,Scattered Clouds,260,2011-11-24 06:54:00
2:54 AM,30.9,30.0,96,30.14,8.0,Calm,Calm,-,N/A,,Partly Cloudy,0,2011-11-24 07:54:00
3:54 AM,30.9,28.0,89,30.12,5.0,SSW,3.5,-,N/A,,Clear,200,2011-11-24 08:54:00
4:54 AM,28.9,27.0,92,30.12,9.0,SW,8.1,-,N/A,,Partly Cloudy,230,2011-11-24 09:54:00
5:54 AM,32.0,30.0,92,30.11,7.0,WSW,9.2,-,N/A,,Clear,240,2011-11-24 10:54:00
6:54 AM,34.0,32.0,92,30.12,7.0,SW,8.1,-,N/A,,Scattered Clouds,230,2011-11-24 11:54:00
7:54 AM,34.0,33.1,96,30.14,5.0,SW,9.2,-,N/A,,Scattered Clouds,230,2011-11-24 12:54:00
8:54 AM,41.0,37.0,86,30.16,10.0,WSW,5.8,-,N/A,,Partly Cloudy,250,2011-11-24 13:54:00
9:54 AM,46.0,39.9,79,30.17,10.0,West,13.8,-,N/A,,Partly Cloudy,260,2011-11-24 14:54:00
10:54 AM,48.9,39.9,71,30.17,10.0,West,16.1,23.0,N/A,,Scattered Clouds,260,2011-11-24 15:54:00
11:54 AM,46.9,37.9,71,30.16,10.0,West,15.0,26.5,N/A,,Scattered Clouds,260,2011-11-24 16:54:00
12:54 PM,48.9,39.0,69,30.14,10.0,West,17.3,25.3,N/A,,Scattered Clouds,280,2011-11-24 17:54:00
1:54 PM,50.0,39.0,66,30.13,10.0,West,16.1,24.2,N/A,,Scattered Clouds,270,2011-11-24 18:54:00
2:54 PM,50.0,39.0,66,30.13,10.0,West,19.6,27.6,N/A,,Mostly Cloudy,270,2011-11-24 19:54:00
3:54 PM,46.9,37.0,68,30.14,10.0,West,12.7,28.8,N/A,,Mostly Cloudy,270,2011-11-24 20:54:00
4:54 PM,44.1,37.0,76,30.13,9.0,WSW,11.5,-,N/A,,Mostly Cloudy,240,2011-11-24 21:54:00
5:54 PM,43.0,37.0,80,30.14,10.0,WSW,9.2,-,N/A,,Scattered Clouds,250,2011-11-24 22:54:00
6:54 PM,41.0,37.0,86,30.14,10.0,WSW,9.2,-,N/A,,Clear,240,2011-11-24 23:54:00
7:54 PM,42.1,37.9,85,30.13,10.0,SW,9.2,-,N/A,,Clear,230,2011-11-25 00:54:00
8:54 PM,42.1,37.9,85,30.12,8.0,SW,13.8,-,N/A,,Clear,230,2011-11-25 01:54:00
9:54 PM,41.0,37.0,86,30.11,8.0,WSW,13.8,-,N/A,,Clear,240,2011-11-25 02:54:00
10:54 PM,41.0,37.0,86,30.11,9.0,WSW,10.4,-,N/A,,Partly Cloudy,250,2011-11-25 03:54:00
11:09 PM,42.8,37.4,81,30.10,10.0,WSW,12.7,-,N/A,,Mostly Cloudy,250,2011-11-25 04:09:00
11:54 PM,44.6,37.4,76,30.09,10.0,West,17.3,23.0,N/A,,Overcast,260,2011-11-25 04:54:00